Regional Weather Roundup
Issued by NWS

Home | Current Version | Previous Version | Graphics & Text | Print | Product List | Glossary On
Versions: 1 2 3 4 5 6 7 8 9 10 11 12 13 14 15 16 17 18 19 20 21 22 23 24 25 26 27 28 29 30 31 32 33 34 35 36 37 38 39 40 41 42 43 44 45 46 47 48 49 50
000
ASUS43 KFSD 310302
RWRSD

WEATHER ROUNDUP FOR SOUTH DAKOTA
NATIONAL WEATHER SERVICE SIOUX FALLS SD
1000 PM CDT THU OCT 30 2014

NOTE: "FAIR" INDICATES FEW OR NO CLOUDS BELOW 12,000 FEET WITH NO
SIGNIFICANT WEATHER AND/OR OBSTRUCTIONS TO VISIBILITY.


SDZ001>005-009-010-012>017-310400-
NORTHWEST AND NORTH CENTRAL SOUTH DAKOTA

CITY           SKY/WX    TMP DP  RH WIND       PRES   REMARKS
BUFFALO          N/A     34  28  79 E9        30.39S WCI  27
FAITH            N/A     35  29  78 NE13      30.48R WCI  26
MOBRIDGE       CLEAR     29  23  78 N3        30.52R
$$

SDZ012>016-024>037-041>051-057-063-072>074-310400-
SOUTHWEST AND SOUTH CENTRAL SOUTH DAKOTA

CITY           SKY/WX    TMP DP  RH WIND       PRES   REMARKS
RAPID CTY ARPT MOCLDY    30  27  88 NE7       30.47R WCI  23
PIERRE         CLOUDY    35  28  75 NE13      30.51R WCI  26
CUSTER         CLEAR     30  27  88 N3        30.39S
ELLSWORTH AFB  MOCLDY    32  29  89 CALM      30.46R
PHILIP         CLEAR     29  26  89 E7        30.50R WCI  22
PINE RIDGE     CLEAR     29  27  92 E6        30.44R WCI  23
SPEARFISH      FAIR      30  28  93 E5        30.42R WCI  25
WINNER         FAIR      32  27  81 N5        30.49R WCI  27
$$

SDZ004>011-016>023-039-040-310400-
NORTHEAST SOUTH DAKOTA

CITY           SKY/WX    TMP DP  RH WIND       PRES   REMARKS
ABERDEEN       CLEAR     27  21  78 N9        30.54R WCI  18
WATERTOWN      PTCLDY    28  20  71 N12       30.46R WCI  18
SISSETON         N/A     27  23  85 N10       30.49R WCI  17
$$

SDZ017-020-022-023-036>040-048>070-310400-
SOUTHEAST SOUTH DAKOTA

CITY           SKY/WX    TMP DP  RH WIND       PRES   REMARKS
SIOUX FALLS    CLOUDY    34  24  67 N18G26    30.43R WCI  23
HURON          CLOUDY    34  23  64 N17G30    30.51R WCI  23
CHAMBERLAIN    CLOUDY    36  28  73 N14       30.50R
MITCHELL       CLOUDY    36  26  67 N22G32    30.49R
YANKTON        CLOUDY    39  28  65 N17G25    30.44R
$$

ABBREVIATIONS USED IN REMARKS
   TC - TEMPERATURE IN CELSIUS
  WCI - WIND CHILL INDEX
   HX - HEAT INDEX
  VSB - VISIBILITY




USA.gov is the U.S. government's official web portal to all federal, state and local government web resources and services.